TimeEDT,TemperatureF,Dew PointF,Humidity,Sea Level PressureIn,VisibilityMPH,Wind Direction,Wind SpeedMPH,Gust SpeedMPH,PrecipitationIn,Events,Conditions,WindDirDegrees,DateUTC
1:54 AM,62.1,55.0,78,30.16,10.0,Calm,Calm,-,N/A,,Clear,0,2013-08-16 05:54:00
2:54 AM,59.0,55.0,87,30.16,10.0,Calm,Calm,-,N/A,,Clear,0,2013-08-16 06:54:00
3:54 AM,57.9,54.0,87,30.16,10.0,Calm,Calm,-,N/A,,Clear,0,2013-08-16 07:54:00
4:54 AM,59.0,53.1,81,30.16,10.0,Calm,Calm,-,N/A,,Clear,0,2013-08-16 08:54:00
5:54 AM,57.9,54.0,87,30.17,10.0,Calm,Calm,-,N/A,,Clear,0,2013-08-16 09:54:00
6:54 AM,57.9,54.0,87,30.17,10.0,Calm,Calm,-,N/A,,Clear,0,2013-08-16 10:54:00
7:54 AM,64.9,57.0,75,30.18,10.0,Calm,Calm,-,N/A,,Clear,0,2013-08-16 11:54:00
8:54 AM,71.1,55.9,59,30.19,10.0,Calm,Calm,-,N/A,,Clear,0,2013-08-16 12:54:00
9:54 AM,75.0,55.0,50,30.19,10.0,Calm,Calm,-,N/A,,Clear,0,2013-08-16 13:54:00
10:54 AM,79.0,53.1,40,30.19,10.0,Calm,Calm,-,N/A,,Clear,0,2013-08-16 14:54:00
11:54 AM,77.0,48.9,37,30.19,10.0,North,3.5,-,N/A,,Scattered Clouds,350,2013-08-16 15:54:00
12:54 PM,79.0,51.1,38,30.19,10.0,SSE,3.5,-,N/A,,Mostly Cloudy,160,2013-08-16 16:54:00
1:54 PM,78.1,50.0,37,30.18,10.0,ESE,3.5,-,N/A,,Partly Cloudy,120,2013-08-16 17:54:00
2:54 PM,79.0,48.9,35,30.16,10.0,ENE,3.5,-,N/A,,Partly Cloudy,70,2013-08-16 18:54:00
3:54 PM,80.1,50.0,35,30.17,10.0,Variable,5.8,-,N/A,,Scattered Clouds,0,2013-08-16 19:54:00
4:54 PM,79.0,50.0,36,30.16,10.0,Calm,Calm,-,N/A,,Clear,0,2013-08-16 20:54:00
5:54 PM,78.1,51.1,39,30.17,10.0,South,3.5,-,N/A,,Clear,170,2013-08-16 21:54:00
6:54 PM,77.0,51.1,40,30.17,10.0,SSE,4.6,-,N/A,,Partly Cloudy,160,2013-08-16 22:54:00
7:54 PM,73.9,55.0,52,30.19,10.0,SE,10.4,-,N/A,,Clear,140,2013-08-16 23:54:00
8:54 PM,72.0,53.1,51,30.20,10.0,Calm,Calm,-,N/A,,Clear,0,2013-08-17 00:54:00
9:54 PM,70.0,54.0,57,30.20,10.0,Calm,Calm,-,N/A,,Clear,0,2013-08-17 01:54:00
10:54 PM,68.0,55.9,65,30.22,10.0,Calm,Calm,-,N/A,,Clear,0,2013-08-17 02:54:00
11:54 PM,66.9,57.0,70,30.22,10.0,Calm,Calm,-,N/A,,Clear,0,2013-08-17 03:54:00